Regional Weather Roundup
Issued by NWS Charleston, SC

Current Version | Previous Version | Text Only | Print | Product List | Glossary Off
Versions: 1 2 3 4 5 6 7 8 9 10 11 12 13 14 15 16 17 18 19 20 21 22 23 24 25 26 27 28 29 30 31 32 33 34 35 36 37 38 39 40 41 42 43 44 45 46 47 48 49 50

000
ASUS42 KCHS 262210
RWRCHS
REGIONAL WEATHER ROUNDUP
NATIONAL WEATHER SERVICE CHARLESTON SC
500 PM EST MON JAN 26 2015

NOTE: "FAIR" INDICATES FEW OR NO CLOUDS BELOW 12,000 FEET WITH NO
SIGNIFICANT WEATHER AND/OR OBSTRUCTIONS TO VISIBILITY.

NOT ALL STATIONS ARE QUALITY CONTROLLED BY THE NATIONAL
WEATHER SERVICE. USE DATA WITH CAUTION...ESPECIALLY
DEWPOINT OBSERVATIONS.

SCZ027-030-031-034>040-042>050-262300-
...SOUTHEAST SOUTH CAROLINA...

CITY           SKY/WX    TMP DP  RH WIND       PRES   REMARKS
N CHARLESTON   MOCLDY    56  39  53 W9G18     29.66R
WATERFRONT PRK   N/A     55 N/A N/A W12         N/A
MOUNT PLEASANT MOCLDY   N/A N/A N/A W9G18     29.65R HAZE
PINOPOLIS      NOT AVBL
MONCKS CORNER  DRIZZLE   55  43  62 N9        29.66R
SUMMERVILLE    MOCLDY    54  41  62 W15G22    29.66R
BEAUFORT MCAS  MOCLDY    54  37  52 W18G29    29.71R
BEAUFORT ARPT  CLOUDY    54  41  62 W15G28    29.71R
HILTON HEAD IS MOCLDY    55  39  54 SW13G25   29.72S
WALTERBORO     CLOUDY    55  34  44 W10       29.69R
ALLENDALE      CLOUDY    54  37  54 W14G21    29.70R

...SOUTHERN MIDLANDS AND PEE DEE...

CITY           SKY/WX    TMP DP  RH WIND       PRES   REMARKS
GEORGETOWN     NOT AVBL
KINGSTREE      NOT AVBL
ORANGEBURG     CLOUDY    57  33  40 W14G28    29.65R
BARNWELL       CLOUDY    54  37  54 W12G18    29.70R
AIKEN          FAIR      50  36  57 W17G25    29.72R
MANNING        NOT AVBL
COLUMBIA       MOCLDY    54  39  57 NW3       29.66R
SUMTER         CLOUDY    54  37  52 NW8       29.63R
FLORENCE       CLOUDY    53  39  59 NW9       29.63R
MYRTLE BEACH   CLOUDY    55  39  54 W13       29.62R
N MYRTLE BEACH LGT RAIN  50  44  80 NW13G21   29.60R

$$

GAZ063-065-086>088-099>101-113>116-118-119-134>141-150-262300-
...SOUTHEAST GEORGIA...

CITY           SKY/WX    TMP DP  RH WIND       PRES   REMARKS
SAVANNAH ARPT  MOCLDY    52  36  54 W24G35    29.75R
HUNTER AAF     PTCLDY    54  38  54 W17G25    29.73R
FORT STEWART   CLOUDY    52  37  56 W21G26    29.77R
STATESBORO     CLOUDY    51  38  60 W17       29.76R
SYLVANIA       CLOUDY    52  39  61 W16G26    29.75R
CLAXTON        FAIR      50  39  66 W17G28    29.78R

...CSRA...CENTRAL AND FAR SOUTHEAST GEORGIA...

CITY           SKY/WX    TMP DP  RH WIND       PRES   REMARKS
THOMSON        MOCLDY    48  36  64 W14G26    29.82R
AUGUSTA-BUSH   CLOUDY    50  33  52 W17G25    29.74R
AUGUSTA-DANIEL MOCLDY    50  33  52 W14G22    29.74R
SWAINSBORO     CLOUDY    52  30  43 NW20G25   29.79R
VIDALIA        CLOUDY    50  37  62 W12G20    29.81R
EASTMAN        CLOUDY    49  37  61 NW13G28   29.86S
HAZLEHURST     CLOUDY    51  40  65 W9G21     29.82R
ALMA           CLOUDY    50  35  56 W13G25    29.83R
WAYCROSS       CLOUDY    54  40  61 NW15G21   29.84R
JESUP          CLOUDY    54  41  62 NW14G24   29.82R
BAXLEY         CLOUDY    52  37  58 NW13G22   29.82R
BRUNSWICK      CLOUDY    54  37  54 W13G21    29.81R
SAINT SIMONS   CLOUDY    52  38  58 W13G21    29.80R

$$

SCZ027-028-034-036>038-045-046-048>050-GAZ119-141-262300-
...LAKE AND SUPPLEMENTAL COASTAL OBSERVATIONS...

STATION/POSITION TIME  TEMP    WIND        PRES    WAVE   SWELL
                       AIR SEA DIR/SP/G            HT/PER HT/PER/DIR
                 (UTC) (F)     (DEG/KT/KT) (MB)    (FT/S) (FT/S/D)
UPR LAKE MARION  NOT AVBL
WINYAH BAY       NOT AVBL
LAKE MURRAY      2100   53     300/  2/  4 1003.7R
ACE BASIN NERRS  NOT AVBL
FORT PULASKI     2200   53 53  280/ 25/ 28 1007.0R
SAPELO ISLAND    NOT AVBL

$$

ANZ835-935-AMZ111-154-330-350-352-354-370-450-454-472-262300-
...C-MAN AND BUOY OBSERVATIONS...

STATION/POSITION TIME  TEMP    WIND        PRES    WAVE   SWELL
                       AIR SEA DIR/SP/G            HT/PER HT/PER/DIR
                 (UTC) (F)     (DEG/KT/KT) (MB)    (FT/S) (FT/S/D)
BUOY 41004       2200   57 68  270/ 23/ 31 1003.0R   7/ 7   2/13
BUOY 41008       2200   53 55  280/ 23/ 29 1007.7R   5/ 5
FOLLY BEACH CMAN 2100   55     270/ 11/ 16 1004.5R
CAPERS NEARSHORE 2100   55     290/ 14/ 16   N/A
FRIPP NEARSHORE  2100   54     290/ 19/ 23   N/A


STATION/POSITION TIME  TEMP    WIND        PRES    WAVE   SWELL
                       AIR SEA DIR/SP/G            HT/PER HT/PER/DIR
                 (UTC) (F)     (DEG/KT/KT) (MB)    (FT/S) (FT/S/D)
5E ST. MARYS GA  2200      58                N/A     3/ 4
FRYING PAN BUOY  2200   57 67  270/ 17/ 21 1001.4S   5/ 7   3/190/ 7
BUOY 41025       2200   55 71  310/ 12/ 16  998.6F   3/ 6   3/180/ 6
CAPE LOOKOUT NC  2100   51     290/  7/  8  999.8R
BUOY 41002       2137   63 72  280/ 27/ 31 1000.2F  10/ 9   7/260/ 9
BUOY 41010       2200   66 76  280/ 27/ 33 1007.3R  13/ 8
ST AUGUSTINE FL  2200   58     280/ 10/ 13 1010.2R


$$


USA.gov is the U.S. government's official web portal to all federal, state and local government web resources and services.